Regional Weather Roundup
Issued by NWS Kansas City/Pleasant Hill, MO

Home | Current Version | Previous Version | Text Only | Print | Product List | Glossary On
Versions: 1 2 3 4 5 6 7 8 9 10 11 12 13 14 15 16 17 18 19 20 21 22 23 24 25 26 27 28 29 30 31 32 33 34 35 36 37 38 39 40 41 42 43 44 45 46 47 48 49 50
736
ASUS43 KEAX 031510
RWREAX

WEATHER ROUNDUP FOR EASTERN KANSAS AND NORTHWEST MISSOURI
NATIONAL WEATHER SERVICE KANSAS CITY/PLEASANT HILL MO
900 AM CST SAT DEC 03 2016

KSZ040-057-103>105-MOZ028-029-037-043-031600-
...KANSAS CITY METROPOLITAN AREA...

CITY           SKY/WX    TMP DP  RH WIND       PRES   REMARKS
K.C. INTL      CLOUDY    36  29  75 SE9       30.30R WCI  29
K.C. DOWNTOWN  CLOUDY    36  31  82 NE3       30.31R
LEES SUMMIT    PTSUNNY   36  30  79 E8        30.30R WCI  30
OLATHE - IXD   CLOUDY    38  30  73 E8        30.28F WCI  32
OLATHE - OJC   CLOUDY    38  29  70 E6        30.28F WCI  33
LAWRENCE       CLOUDY    34  31  88 E9        30.29S WCI  27

$$

MOZ001>008-011>017-020>025-030>033-038>040-044>046-053-054-031600-
...NORTHERN AND CENTRAL MISSOURI...

CITY           SKY/WX    TMP DP  RH WIND       PRES   REMARKS
ST. JOSEPH     CLOUDY    31  28  89 CALM      30.31R
MOSBY          CLOUDY    32  30  93 CALM      30.32R
WARRENSBURG    CLOUDY    32  30  93 CALM      30.30F
WHITEMAN AFB   CLOUDY    36  33  90 SE6       30.29F WCI  31
CLINTON        CLOUDY    37  32  81 CALM      30.30S
SEDALIA        PTSUNNY   36  29  75 E5        30.31  WCI  32
WARSAW         NOT AVBL
CHILLICOTHE      N/A     34  31  88 CALM      30.34R
KIRKSVILLE     MOSUNNY   32  30  92 E6        30.33S WCI  26

$$

MOZ041-047>049-056>058-063>065-088>090-097-031600-
...EASTERN AND SOUTHERN MISSOURI...

CITY           SKY/WX    TMP DP  RH WIND       PRES   REMARKS
ST. LOUIS INTL PTSUNNY   39  32  76 E6        30.37R WCI  35
SPIRIT OF STL  MOSUNNY   35  32  88 CALM      30.37R
COLUMBIA       MOSUNNY   35  30  82 E7        30.32F WCI  29
JEFFERSON CITY MOSUNNY   30  27  88 CALM      30.34S
ROLLA          CLOUDY    35  29  78 E7        30.31R WCI  29
OSAGE BEACH    CLOUDY    36  28  73 E5        30.32S WCI  32
SPRINGFIELD    CLOUDY    45  30  55 SE12      30.25F
BRANSON        CLOUDY    41  32  70 SE7       30.27S
JOPLIN         MOSUNNY   46  33  60 SE8       30.23S
WEST PLAINS    CLOUDY    39  32  76 E7        30.31S WCI  34

$$

IAZ060-094-KSZ022-034>040-054-083-096-NEZ052-066-093-031600-
...KANSAS...SOUTHEAST NEBRASKA AND IOWA...

CITY           SKY/WX    TMP DP  RH WIND       PRES   REMARKS
TOPEKA         CLOUDY    35  30  82 E6        30.28S WCI  30
MANHATTAN      CLOUDY    34  30  85 NE6       30.26S WCI  29
EMPORIA        CLOUDY    39  29  67 E10       30.23S WCI  32
CHANUTE        CLOUDY    43  29  57 E10       30.22S
WICHITA        LGT RAIN  41  31  67 NE6       30.20S
OMAHA          CLOUDY    27  24  89 CALM      30.27F
LINCOLN        CLOUDY    28  25  88 CALM      30.28R
FALLS CITY       N/A    N/A N/A N/A MISG      30.28S
LAMONI         MOSUNNY   28  26  92 E5        30.31R WCI  23
DES MOINES     PTSUNNY   37  30  75 S5        30.31S WCI  33

$$





USA.gov is the U.S. government's official web portal to all federal, state and local government web resources and services.